Helena, Arkansas, United States (72342)
Lat: 34.53N, Lon: 90.59W
Wx Zone: ARZ058
Local Info
Past Weather Observations for Sunday, April 19, 2015

NOTE: This archive is for the closest National Weather Service station to Helena. Information may differ from the station used for current weather conditions.

Click here for Long-term Archive

Time Weather Temperature Dewpoint Humidity Pressure Winds Precip Visibility
23:55
Clear
59°F / 15°C 55°F / 13°C 88% 29.68 in
(1005 mb)
SW 5.8 mph
(SW 9 kph)
- 10SM
23:35
Clear
61°F / 16°C 55°F / 13°C 83% 29.68 in
(1005 mb)
SSW 6.9 mph
(SSW 11 kph)
- 10SM
23:15
Clear
61°F / 16°C 55°F / 13°C 83% 29.68 in
(1005 mb)
W 8.1 mph
(W 13 kph)
- 10SM
22:55
Clear
61°F / 16°C 55°F / 13°C 83% 29.65 in
(1004 mb)
W 11.5 mph
(W 19 kph)
- 10SM
22:35
Partly Cloudy
63°F / 17°C 55°F / 13°C 77% 29.65 in
(1004 mb)
WNW 15 mph
(WNW 24 kph)
- 10SM
22:15
Partly Cloudy
Light Rain
63°F / 17°C 57°F / 14°C 83% 29.65 in
(1004 mb)
W 17.3 mph
(W 28 kph)
- 10SM
21:55
Partly Cloudy
Light Rain
63°F / 17°C 59°F / 15°C 88% 29.65 in
(1004 mb)
SSW 11.5 mph
(SSW 19 kph)
0.13 in
(3.30 mm)
10SM
21:35
Overcast
Thunder Storms
63°F / 17°C 59°F / 15°C 88% 29.65 in
(1004 mb)
SSW 15 mph
(SSW 24 kph)
0.12 in
(3.05 mm)
7SM
21:15
Mostly Cloudy
Thunder Storms
64°F / 18°C 57°F / 14°C 78% 29.62 in
(1003 mb)
SW 19.6 mph
(SW 32 kph)
0.09 in
(2.29 mm)
4SM
20:55
Partly Cloudy
Thunder Storms
64°F / 18°C 59°F / 15°C 83% 29.62 in
(1003 mb)
SSE 12.7 mph
(SSE 20 kph)
0.09 in
(2.29 mm)
10SM
20:35
Overcast
Thunder Storms
68°F / 20°C 63°F / 17°C 83% 29.62 in
(1003 mb)
SW 15 mph
(SW 24 kph)
0.09 in
(2.29 mm)
10SM
20:15
Overcast
70°F / 21°C 63°F / 17°C 78% 29.62 in
(1003 mb)
S 15 mph
(S 24 kph)
- 10SM
19:55
Mostly Cloudy
Thunder Storms
70°F / 21°C 63°F / 17°C 78% 29.59 in
(1002 mb)
S 15 mph
(S 24 kph)
0.01 in
(0.25 mm)
10SM
19:35
Clear
70°F / 21°C 63°F / 17°C 78% 29.59 in
(1002 mb)
S 15 mph
(S 24 kph)
- 10SM
19:15
Clear
70°F / 21°C 61°F / 16°C 73% 29.59 in
(1002 mb)
S 13.8 mph
(S 22 kph)
- 10SM
18:55
Clear
72°F / 22°C 61°F / 16°C 69% 29.59 in
(1002 mb)
S 9.2 mph
(S 15 kph)
- 10SM
18:35
Clear
72°F / 22°C 61°F / 16°C 69% 29.62 in
(1003 mb)
S 10.4 mph
(S 17 kph)
- 10SM
18:15
Clear
72°F / 22°C 61°F / 16°C 69% 29.59 in
(1002 mb)
S 9.2 mph
(S 15 kph)
- 10SM
17:55
Clear
73°F / 23°C 61°F / 16°C 65% 29.62 in
(1003 mb)
SSE 10.4 mph
(SSE 17 kph)
- 10SM
17:35
Clear
73°F / 23°C 59°F / 15°C 61% 29.59 in
(1002 mb)
SSE 9.2 mph
(SSE 15 kph)
- 10SM
17:15
Clear
75°F / 24°C 59°F / 15°C 57% 29.62 in
(1003 mb)
SW 11.5 mph
(SW 19 kph)
- 10SM
16:55
Clear
75°F / 24°C 59°F / 15°C 57% 29.62 in
(1003 mb)
SSE 11.5 mph
(SSE 19 kph)
- 10SM
16:35
Clear
77°F / 25°C 61°F / 16°C 57% 29.62 in
(1003 mb)
SW 11.5 mph
(SW 19 kph)
- 10SM
16:15
Clear
77°F / 25°C 59°F / 15°C 54% 29.62 in
(1003 mb)
SW 13.8 mph
(SW 22 kph)
- 10SM
15:55
Clear
77°F / 25°C 59°F / 15°C 54% 29.62 in
(1003 mb)
SW 15 mph
(SW 24 kph)
- 10SM
15:35
Clear
77°F / 25°C 61°F / 16°C 57% 29.65 in
(1004 mb)
SW 11.5 mph
(SW 19 kph)
- 10SM
15:15
Clear
77°F / 25°C 61°F / 16°C 57% 29.65 in
(1004 mb)
SW 13.8 mph
(SW 22 kph)
- 10SM
14:55
Clear
75°F / 24°C 61°F / 16°C 61% 29.65 in
(1004 mb)
SW 13.8 mph
(SW 22 kph)
- 10SM
14:35
Clear
75°F / 24°C 61°F / 16°C 61% 29.65 in
(1004 mb)
SSW 15 mph
(SSW 24 kph)
- 10SM
14:15
Clear
75°F / 24°C 61°F / 16°C 61% 29.65 in
(1004 mb)
SSW 16.1 mph
(SSW 26 kph)
- 10SM
13:55
Clear
73°F / 23°C 61°F / 16°C 65% 29.65 in
(1004 mb)
SSW 13.8 mph
(SSW 22 kph)
- 10SM
13:35
Clear
73°F / 23°C 63°F / 17°C 69% 29.68 in
(1005 mb)
SSW 16.1 mph
(SSW 26 kph)
- 10SM
13:15
Clear
73°F / 23°C 64°F / 18°C 74% 29.68 in
(1005 mb)
SSW 16.1 mph
(SSW 26 kph)
- 10SM
12:55
Partly Cloudy
72°F / 22°C 64°F / 18°C 78% 29.68 in
(1005 mb)
SSW 13.8 mph
(SSW 22 kph)
- 10SM
12:35
Mostly Cloudy
68°F / 20°C 64°F / 18°C 88% 29.68 in
(1005 mb)
SSW 13.8 mph
(SSW 22 kph)
- 10SM
12:15
Mostly Cloudy
Light Rain
68°F / 20°C 63°F / 17°C 83% 29.68 in
(1005 mb)
SSW 12.7 mph
(SSW 20 kph)
- 10SM
11:55
Mostly Cloudy
70°F / 21°C 63°F / 17°C 78% 29.71 in
(1006 mb)
SSW 16.1 mph
(SSW 26 kph)
- 10SM
11:35
Partly Cloudy
Light Rain
70°F / 21°C 63°F / 17°C 78% 29.71 in
(1006 mb)
SSW 16.1 mph
(SSW 26 kph)
- 10SM
11:15
Clear
68°F / 20°C 63°F / 17°C 83% 29.71 in
(1006 mb)
SSW 11.5 mph
(SSW 19 kph)
- 10SM
10:55
Partly Cloudy
68°F / 20°C 63°F / 17°C 83% 29.71 in
(1006 mb)
SSW 13.8 mph
(SSW 22 kph)
- 10SM
10:35
Mostly Cloudy
68°F / 20°C 63°F / 17°C 83% 29.71 in
(1006 mb)
SSW 12.7 mph
(SSW 20 kph)
- 10SM
10:15
Mostly Cloudy
70°F / 21°C 63°F / 17°C 78% 29.71 in
(1006 mb)
SSW 13.8 mph
(SSW 22 kph)
- 10SM
09:55
Mostly Cloudy
68°F / 20°C 63°F / 17°C 83% 29.68 in
(1005 mb)
W 10.4 mph
(W 17 kph)
- 10SM
09:35
Partly Cloudy
70°F / 21°C 64°F / 18°C 83% 29.68 in
(1005 mb)
W 9.2 mph
(W 15 kph)
- 10SM
09:15
Mostly Cloudy
68°F / 20°C 63°F / 17°C 83% 29.68 in
(1005 mb)
W 10.4 mph
(W 17 kph)
- 10SM
08:55
Overcast
68°F / 20°C 63°F / 17°C 83% 29.65 in
(1004 mb)
W 11.5 mph
(W 19 kph)
- 10SM
08:35
Mostly Cloudy
68°F / 20°C 63°F / 17°C 83% 29.65 in
(1004 mb)
W 10.4 mph
(W 17 kph)
- 10SM
08:15
Overcast
66°F / 19°C 63°F / 17°C 88% 29.62 in
(1003 mb)
NW 13.8 mph
(NW 22 kph)
- 10SM
07:55
Overcast
66°F / 19°C 64°F / 18°C 94% 29.65 in
(1004 mb)
WNW 11.5 mph
(WNW 19 kph)
0.08 in
(2.03 mm)
10SM
07:35
Overcast
66°F / 19°C 64°F / 18°C 94% 29.65 in
(1004 mb)
W 9.2 mph
(W 15 kph)
0.08 in
(2.03 mm)
10SM
07:15
Overcast
Light Rain
64°F / 18°C 64°F / 18°C 100% 29.68 in
(1005 mb)
SSW 11.5 mph
(SSW 19 kph)
0.08 in
(2.03 mm)
2SM
06:55
Overcast
66°F / 19°C 64°F / 18°C 94% 29.68 in
(1005 mb)
SW 12.7 mph
(SW 20 kph)
0.01 in
(0.25 mm)
10SM
Time Weather Temperature Dewpoint Humidity Pressure Winds Precip Visibility


Weather for websites

WeatherForYou.com, LLC is not responsible for any damages or problems caused by this service. Current weather conditions are obtained from the closest station including government and personal stations which may have varying degrees of accuracy. Weather forecasts are derived from the NOAA NDFD. Like all things, this site belongs to Jesus Christ... He just trusts us to maintain it. If you have any questions or comments email webmaster@weatherforyou.com

Copyright © 2015, WeatherForYou.com LLC. All rights reserved.